EHI
14 22 30 32 30 24 18 15 12 9 7 6 3 1 0 0 0 0 0 0 0 0 0 0 0 0 0 0 0 0 0 0 0 0 0 0 0 0 0 0 0 0 0
17 24 31 34 31 25 21 17 15 13 11 9 6 3 0 0 0 0 0 0 0 0 0 0 0 0 0 0 0 0 0 0 0 0 0 0 0 0 0 0 0 0 0
19 24 31 33 31 27 23 20 18 18 16 13 10 6 2 0 1 1 0 0 0 0 0 0 0 0 0 0 0 0 0 0 0 0 0 0 0 0 0 0 0 0 0
16 22 29 32 31 27 23 21 20 19 18 16 13 9 5 2 3 2 1 0 0 0 0 0 0 0 0 0 0 0 0 0 0 0 0 0 0 0 0 0 0 0 0
14 20 30 35 34 28 24 21 20 20 19 18 15 11 6 4 4 3 2 0 0 0 0 0 0 0 0 0 0 0 0 0 0 0 0 0 0 0 0 0 0 0 0
12 20 32 39 37 31 25 22 20 19 19 18 16 12 7 5 4 3 1 0 0 0 0 0 0 0 0 0 0 0 0 0 0 0 0 0 0 0 0 0 0 0 0
13 19 29 36 35 29 23 20 18 17 17 17 16 13 8 5 4 3 1 0 0 0 0 0 0 0 0 0 0 0 0 0 0 0 0 0 0 0 0 0 0 0 0
12 16 22 27 27 23 19 17 15 14 15 16 16 13 9 5 4 3 1 1 0 0 0 0 0 0 0 0 0 0 0 0 0 0 0 0 0 0 0 0 0 0 0
9 10 14 17 18 17 17 15 14 14 14 15 14 11 7 5 3 2 2 2 1 1 0 0 0 0 0 0 0 0 0 0 0 0 0 0 0 0 0 0 0 0 0
7 9 11 11 12 14 15 14 14 14 14 12 10 7 5 3 1 1 2 3 3 2 1 0 0 0 0 0 0 0 0 0 0 0 0 0 0 0 0 0 0 0 0
7 10 11 9 9 10 12 13 13 12 11 8 6 4 3 2 1 0 1 3 3 3 1 0 0 0 0 0 0 0 0 0 0 0 0 0 0 0 0 0 0 0 0
8 9 9 9 8 9 11 13 12 11 8 6 4 3 3 3 2 1 1 3 3 2 1 0 0 0 0 0 0 0 0 0 0 0 0 0 0 0 0 0 0 0 0
10 9 8 7 7 9 12 13 12 11 8 5 4 3 3 3 3 3 3 3 3 2 1 0 0 0 0 0 0 0 0 0 0 0 0 0 0 0 0 0 0 0 0
11 10 9 7 7 7 10 10 10 10 8 5 4 4 4 4 5 4 3 3 3 2 0 0 0 0 0 0 0 0 0 0 0 0 0 0 0 0 0 0 0 0 0
10 10 9 8 7 6 7 8 7 6 5 4 5 4 4 5 6 5 4 4 2 1 0 0 0 0 0 0 0 0 0 0 0 0 0 0 0 0 0 0 0 0 0
8 9 8 7 7 6 6 6 5 4 3 4 4 3 3 5 6 6 5 4 1 0 0 0 0 0 0 0 0 0 0 0 0 0 0 0 0 0 0 0 0 0 0
7 8 8 6 5 4 4 4 4 4 4 4 4 3 3 4 5 6 5 2 0 0 0 0 0 0 0 0 0 0 0 0 0 0 0 0 0 0 0 0 0 0 0
4 6 7 5 3 1 1 2 3 3 4 5 4 4 3 3 4 4 3 1 0 0 0 0 0 0 0 0 0 0 0 0 0 0 0 0 0 0 0 0 0 0 0
1 2 3 3 2 1 1 1 2 3 3 4 4 4 3 3 3 2 1 0 0 0 0 0 0 0 0 0 0 0 0 0 0 0 0 0 0 0 0 0 0 0 0
0 0 1 1 1 1 1 1 1 2 2 2 2 1 1 2 1 1 0 0 0 0 0 0 0 0 0 0 0 0 0 0 0 0 0 0 0 0 0 0 0 0 0
0 0 0 0 0 1 1 1 1 1 1 1 0 0 0 0 0 0 0 0 0 0 0 0 0 0 0 0 0 0 0 0 0 0 0 0 0 0 0 0 0 0 0
0 0 0 0 0 0 0 0 0 0 1 1 0 0 0 0 0 0 0 0 0 0 0 0 0 0 0 0 0 0 0 0 0 0 0 0 0 0 0 0 0 0 0
1 0 0 0 0 0 0 0 0 0 0 0 0 0 0 0 0 0 0 0 0 0 0 0 0 0 0 0 0 0 0 0 0 0 0 0 0 0 0 0 0 0 0
1 0 0 0 0 0 0 0 0 0 0 0 0 0 0 0 0 0 0 0 0 0 0 0 0 0 0 0 0 0 0 0 0 0 0 0 0 0 0 0 0 0 0
1 0 0 0 0 0 0 0 0 0 0 0 0 0 0 0 0 0 0 0 0 0 0 0 0 0 0 0 0 0 0 0 0 0 0 0 0 0 0 0 0 0 0
0 0 0 0 0 0 0 0 0 0 0 0 0 0 0 0 0 0 0 0 0 0 0 0 0 0 0 0 0 0 0 0 0 0 0 0 0 0 0 0 0 0 0
Wind_Speed
8 10 12 11 11 11 11 11 11 10 10 10 10 10 9 9 9 8 8 8 8 8 8 7 7 7 7 7 7 8 7 7 7 7 6 6 5 5 4 3 2 3 5
10 12 12 11 11 11 11 10 10 10 10 9 9 10 9 9 9 8 8 8 7 7 7 7 7 6 6 7 7 7 7 7 7 6 4 4 5 4 4 4 3 3 4
11 12 13 11 11 11 11 10 10 10 9 9 9 9 9 9 8 8 7 7 7 7 6 6 6 6 6 6 6 6 6 6 6 4 1 2 4 4 4 4 3 3 3
11 11 11 12 11 11 11 10 10 10 9 9 9 9 8 8 8 8 8 7 7 6 6 6 6 6 6 6 6 6 6 6 5 2 1 3 3 5 4 4 3 3 3
11 11 12 12 11 11 11 10 10 10 9 9 9 9 8 8 8 7 7 7 6 6 6 6 6 6 6 5 5 5 5 5 3 2 3 3 3 4 3 3 3 3 2
11 11 12 11 11 11 11 10 10 9 9 9 9 8 8 8 7 7 7 7 6 6 6 5 5 5 5 5 5 5 4 3 1 2 2 2 2 3 3 3 2 2 2
10 10 12 11 11 11 10 10 9 9 9 8 8 8 8 8 7 7 7 6 6 6 5 5 5 5 5 5 5 5 4 3 2 2 2 2 3 4 3 3 3 2 2
9 9 11 11 11 10 10 10 9 9 8 8 8 8 8 8 7 7 7 6 6 6 5 5 5 5 5 5 4 4 4 3 2 1 1 2 3 3 3 3 3 3 3
8 8 9 10 10 10 9 9 9 8 8 8 8 8 8 8 7 7 6 6 5 5 5 5 5 5 4 4 4 3 3 4 2 1 1 1 3 3 3 3 3 4 4
7 7 8 8 8 8 9 9 8 8 8 8 8 7 7 7 6 6 6 6 5 5 4 4 4 4 4 3 3 3 2 3 1 1 1 2 4 4 4 4 4 4 5
6 6 6 7 7 7 7 8 8 8 7 7 7 7 5 4 4 4 5 5 5 4 4 4 4 3 2 2 2 2 2 1 1 1 1 3 4 5 5 4 4 5 5
7 6 5 6 6 6 5 6 5 5 5 4 4 5 3 3 3 3 5 4 4 3 3 4 3 1 1 0 1 2 2 1 1 1 1 3 4 5 5 5 5 6 6
6 5 5 5 5 5 4 4 3 3 3 4 4 4 3 2 2 2 2 3 2 2 1 2 1 0 1 1 1 1 2 2 1 1 1 2 5 6 6 6 5 6 6
6 5 4 5 4 5 4 3 3 3 3 3 3 3 2 2 2 1 1 1 1 0 0 0 1 1 1 1 2 2 2 2 2 1 2 3 5 6 6 6 6 6 7
5 5 4 4 5 4 4 3 3 3 3 3 3 3 2 2 2 1 1 1 0 0 0 1 1 1 1 1 1 2 2 2 2 2 1 2 4 5 6 7 7 7 8
5 5 4 4 4 5 4 3 3 3 3 3 3 3 2 2 1 1 1 1 1 0 1 1 1 1 1 1 2 2 2 2 2 2 2 1 2 4 6 7 8 8 9
5 5 5 5 4 5 5 4 3 3 3 3 3 3 2 2 2 1 1 1 1 1 1 1 1 1 1 1 2 2 2 2 2 2 2 2 2 2 4 7 8 9 9
4 4 5 4 4 4 4 4 3 3 3 2 2 2 3 3 2 2 1 1 1 1 0 0 1 1 1 1 2 2 2 2 3 3 2 2 2 3 3 5 7 8 9
3 4 4 4 4 4 4 3 3 3 3 2 2 2 2 3 2 2 1 1 1 1 1 0 1 1 1 2 2 2 2 2 2 2 2 3 3 3 4 4 5 7 8
2 3 4 4 4 4 3 3 2 2 2 2 2 2 3 2 2 2 1 1 1 1 1 1 1 1 1 2 2 2 2 2 2 2 3 3 3 4 4 5 4 4 7
2 3 3 3 4 4 3 3 3 3 2 2 2 2 3 2 2 2 1 1 1 1 1 1 1 0 1 1 1 2 2 2 2 2 2 3 4 4 5 5 4 5 4
2 3 3 3 4 4 3 3 2 2 2 2 2 2 2 3 3 2 2 2 2 1 1 1 1 0 1 1 1 2 2 2 1 2 3 3 4 4 4 5 5 5 5
2 2 2 3 3 4 4 2 2 2 1 2 2 2 2 3 3 2 3 2 2 2 2 2 2 2 1 1 2 2 2 2 3 2 3 3 4 4 4 4 5 6 6
2 1 2 2 3 3 4 4 4 3 3 3 2 3 3 3 2 2 3 3 2 2 2 3 3 3 3 2 2 2 3 3 3 3 3 3 4 5 5 4 5 5 6
1 1 1 2 2 2 3 4 4 3 3 2 2 3 3 2 2 2 2 2 2 2 3 3 3 3 3 3 2 2 2 3 4 4 4 4 4 4 4 5 4 5 5
1 1 1 1 1 2 3 3 4 4 3 3 3 3 2 2 2 2 2 2 2 2 3 3 3 4 3 4 3 3 2 3 3 3 4 5 5 4 5 4 4 4 4
Wind_Direction
151 148 138 137 134 129 126 123 120 117 115 113 112 110 106 102 99 95 90 88 85 81 80 77 76 77 76 74 71 66 64 63 59 59 60 62 68 71 71 67 69 101 76
146 145 137 136 134 131 126 121 119 117 114 114 113 110 107 103 100 97 93 87 85 83 80 77 74 76 75 71 67 66 65 65 59 55 52 77 76 68 63 56 39 58 74
145 143 141 136 133 130 126 122 120 117 115 114 112 110 108 104 100 96 93 89 85 82 80 79 77 76 72 70 69 67 65 63 58 45 355 68 82 72 59 56 59 55 59
144 143 141 134 132 129 128 125 122 119 117 114 111 109 108 106 102 98 95 90 86 81 76 72 72 74 73 69 67 67 63 59 46 355 16 50 60 65 52 46 46 44 41
143 142 133 133 132 129 128 126 123 120 117 115 112 110 108 105 102 99 95 91 85 80 75 70 70 72 70 67 63 63 63 58 29 344 31 38 46 54 37 32 29 31 24
140 138 129 129 128 127 127 125 122 119 117 116 115 113 109 104 100 98 91 86 82 80 76 72 72 72 68 66 58 54 54 43 330 30 25 24 38 44 21 10 0 356 354
138 133 131 126 125 124 123 123 121 119 117 116 115 113 110 105 99 94 91 87 82 77 75 72 72 70 67 64 57 49 44 12 350 20 19 25 31 21 10 5 357 339 332
138 134 134 128 125 124 124 123 121 119 118 116 112 109 106 102 99 96 92 88 84 80 75 73 72 69 65 60 52 48 33 350 348 3 11 29 29 1 356 352 349 336 315
138 138 139 143 137 129 124 123 122 120 118 114 110 105 101 98 97 96 90 85 83 77 73 73 70 66 60 53 48 45 27 346 313 348 346 9 18 346 341 332 328 324 313
141 144 144 147 146 147 140 125 123 121 117 115 110 103 102 106 104 100 96 84 79 75 72 73 70 65 57 50 43 36 2 285 305 335 327 22 350 326 321 322 318 313 311
148 148 147 149 149 149 146 137 135 128 118 123 118 110 122 128 121 118 93 84 81 76 73 71 63 58 55 80 59 11 274 267 334 324 331 12 331 317 312 308 308 307 305
161 157 153 152 153 152 150 151 153 146 139 139 136 136 138 128 117 113 108 98 90 81 87 75 64 77 269 191 128 243 259 290 284 280 9 355 316 308 310 304 301 301 302
162 160 159 156 157 157 155 154 149 146 146 145 142 140 142 135 137 138 135 133 129 123 104 108 165 35 331 341 306 291 312 310 298 306 7 348 313 310 310 305 301 302 302
169 163 161 160 160 160 158 156 153 152 154 150 151 153 155 150 159 151 160 139 156 154 64 287 304 356 326 312 300 302 304 300 305 320 7 351 318 311 310 309 303 302 303
176 174 167 167 165 162 162 163 164 163 163 155 155 161 169 169 172 174 174 171 203 279 277 307 310 335 312 318 307 305 304 302 300 303 328 352 317 314 312 311 309 305 303
184 180 173 170 169 167 169 171 170 172 169 169 162 164 177 181 180 185 185 188 209 259 290 290 315 318 315 316 307 304 303 308 305 302 307 328 322 315 313 314 312 311 309
188 182 180 178 173 175 176 177 174 176 177 172 163 168 177 186 191 194 197 202 221 245 264 297 319 311 316 307 298 309 311 310 305 307 309 311 316 319 315 315 316 314 313
187 185 180 177 179 176 175 179 173 178 179 175 167 173 181 187 198 201 203 209 237 231 224 254 303 309 307 305 309 309 303 303 303 313 307 306 313 316 320 321 313 311 313
189 187 181 179 181 176 171 174 169 170 179 174 169 173 187 193 203 208 213 215 217 227 222 237 296 302 309 318 313 301 297 294 302 302 303 309 317 316 313 323 315 309 309
184 183 183 178 179 170 165 163 161 168 178 178 178 180 184 193 204 210 211 210 211 219 227 244 280 304 310 319 314 309 297 292 287 298 305 306 313 317 315 317 312 309 305
169 176 178 182 177 171 170 177 182 187 186 185 190 190 191 194 202 205 205 201 217 225 238 231 258 288 342 336 313 311 290 268 274 290 298 302 312 320 317 318 314 311 303
176 179 186 183 182 183 188 189 200 188 196 190 185 198 205 202 201 206 211 209 217 228 226 220 216 251 304 298 295 300 300 265 258 296 302 304 310 318 318 318 316 313 313
186 189 189 185 185 187 181 175 159 153 164 177 190 199 209 207 204 211 214 212 215 223 225 224 218 233 237 265 281 280 278 282 309 273 294 300 311 315 319 320 322 320 317
194 194 191 181 182 180 180 186 187 194 201 206 207 199 200 202 202 206 216 217 220 225 228 229 227 240 230 239 247 265 281 287 281 288 281 300 313 318 322 325 320 319 318
155 169 187 177 179 180 190 193 203 213 215 203 200 200 197 193 199 199 214 216 221 230 232 235 235 236 235 243 245 249 264 272 268 270 289 304 313 320 321 319 316 318 320
104 102 125 167 175 185 195 202 213 219 213 194 200 204 203 198 201 192 216 226 229 232 231 235 240 243 245 251 257 255 259 265 269 275 284 298 305 311 313 311 313 320 321